View from above orbital plane
|
View from above satellite
|
Ground track
|
The orbit data is extracted from the following two-line orbital elements,
1 25544U 98067A 21103.27861774 -.00000194 00000-0 46354-5 0 9991
2 25544 51.6434 303.7712 0002831 223.6238 319.1529 15.48880037278537
Epoch (UTC): | 13 April 2021 06:41:12 |
Eccentricity: | 0.0002831 |
inclination: | 51.6434° |
perigee height: | 418 km |
apogee height: | 422 km |
right ascension of ascending node: | 303.7712° |
argument of perigee: | 223.6238° |
revolutions per day: | 15.48880037 |
mean anomaly at epoch: | 319.1529° |
orbit number at epoch: | 27853 |
The dashed part of the orbit path shows where the satellite is in the earth's shadow,
|
|